Location: Hawk's Hollow Observatory
(42.9278°N, 85.8301°W)
Time: 19:26:41
(UTC-04:00)

Envisat - Visible Passes

Search period start: 19 July 2018 00:00
Search period end: 29 July 2018 00:00
Orbit: 764 x 766 km, 98.2° (Epoch: 19 July)

Date Brightness Start Highest point End Pass type
(mag) Time Alt. Az. Time Alt. Az. Time Alt. Az.
19 Jul 5.0 21:46:18 10° SSW 21:50:38 28° W 21:55:00 10° NW visible
21 Jul 5.6 22:13:18 10° SW 22:16:27 16° W 22:19:36 10° NW visible
24 Jul 5.5 22:01:25 10° SW 22:05:10 21° W 22:08:56 10° NW visible
26 Jul 5.9 22:29:22 10° WSW 22:31:02 11° W 22:32:43 10° WNW visible
27 Jul 5.2 21:49:43 10° SSW 21:53:54 26° W 21:58:08 10° NW visible
